Flag for U.S.A. Weather past 2 weeks in St. Augustine, Florida, U.S.A.

Now
63 °F

Low clouds.


Feels Like: 63 °F
Forecast: 60 / 69 °F
Wind: 13 mph from North

Location: St. Augustine Airport

Current Time: Dec 21, 2014 at 7:33:20 AM

Latest Report: Dec 21, 2014 at 6:58 AM


Visibility: 8 mi

Pressure: 30.10 "Hg

Humidity: 93%

Dew point: 61 °F

Location of St. AugustineLocation

Historic Weather in St. Augustine — Graph

°F

St. Augustine temperature yesterday

Maximum temperature yesterday: 67 °F (at 11:58 AM)
Minimum temperature yesterday: 54 °F (at 5:58 AM)
Average temperature yesterday: 61 °F

Past Weeks' High & Low Weather Summary

 TemperatureHumidityPressure
High74 °F (Dec 16, 2:58 PM)100% (Dec 6, 5:03 AM)30.29 "Hg (Dec 6, 5:03 AM)
Low40 °F (Dec 11, 3:58 AM)24% (Dec 14, 2:58 PM)30.00 "Hg (Dec 9, 3:58 PM)
Average55 °F78%30.13 "Hg
* Reported Dec 6 5:03 AM — Dec 21 5:58 AM, St. Augustine, Weather by CustomWeather, © 2014

Note: Actual official high and low records may vary slightly from our data, if they occured in-between our weather recording intervals... More about our weather records

Advertising

St. Augustine weather history for previous 24 hours

 ConditionsComfort  
Time TempWeatherWind HumidityBarometerVisibility
5:58 AM
Dec 21
61 °FLow clouds.8 mph97%30.09 "Hg7 mi
4:58 AM61 °FFog.8 mph97%30.09 "Hg6 mi
3:58 AM61 °FLow clouds.13 mph97%30.09 "Hg8 mi
2:58 AM61 °FLow clouds.10 mph97%30.11 "Hg9 mi
1:58 AM61 °FLow clouds.13 mph93%30.11 "Hg10 mi
12:58 AM61 °FLow clouds.10 mph97%30.12 "Hg9 mi
11:58 PM
Dec 20
61 °FLow clouds.9 mph97%30.11 "Hg10 mi
10:58 PM62 °FLow clouds.8 mph93%30.13 "Hg7 mi
9:58 PM62 °FLow clouds.9 mph93%30.13 "Hg9 mi
8:58 PM61 °FLow clouds.10 mph93%30.13 "Hg10 mi
7:58 PM61 °FLow clouds.12 mph90%30.12 "Hg10 mi
6:58 PM60 °FFog.10 mph93%30.12 "Hg5 mi
5:58 PM60 °FFog.9 mph90%30.11 "Hg5 mi
4:58 PM61 °FFog.12 mph90%30.10 "Hg5 mi
3:58 PM64 °FSunny.15 mph78%30.09 "Hg10 mi
2:58 PM66 °FPassing clouds.13 mph70%30.08 "Hg10 mi
1:58 PM66 °FSunny.12 mph68%30.09 "Hg10 mi
12:58 PM66 °FPartly sunny.12 mph73%30.11 "Hg10 mi
11:58 AM67 °FPartly sunny.10 mph73%30.13 "Hg10 mi
10:58 AM66 °FPartly sunny.12 mph68%30.15 "Hg10 mi
9:58 AM65 °FBroken clouds.7 mph70%30.16 "Hg10 mi
8:58 AM61 °FMore clouds than sun.6 mph83%30.14 "Hg10 mi
7:58 AM58 °FOvercast.5 mph84%30.13 "Hg10 mi
Weather by CustomWeather, © 2014

See weather overviewHow to use our weather pages